EW9451 Weather Reports


time (UTC)temp
C
wind
direction
speed
KPH
gust
KPH
rain 1hr
cm
rain 24hr
cm
rain mn
cm
humidity
%
barometer
mb
20260506183053 5 332 3.2 6.4 0.05 3.02 1.80 96 1001.7
20260506182552 5 346 1.6 6.4 0.08 3.02 1.80 96 1001.5
20260506182055 5 48 1.6 6.4 0.10 3.02 1.80 96 1001.6
20260506181552 5 355 1.6 6.4 0.10 3.02 1.80 96 1001.7
20260506181053 5 295 1.6 8.0 0.13 3.02 1.80 96 1001.7
20260506180552 5 342 3.2 8.0 0.10 3.00 1.78 96 1001.9
20260506180100 5 338 3.2 6.4 0.10 3.00 1.78 96 1001.7
20260506175553 5 288 1.6 8.0 0.10 3.00 1.78 96 1001.8
20260506175050 5 5 1.6 8.0 0.13 3.00 1.78 96 1001.8
20260506174550 5 263 3.2 8.0 0.13 3.00 1.78 96 1001.9
20260506174050 5 298 3.2 8.0 0.13 2.97 1.75 96 1001.9
20260506173550 5 321 1.6 8.0 0.13 2.97 1.75 96 1001.8
20260506173106 5 13 3.2 8.0 0.15 2.97 1.75 96 1001.9
20260506172553 5 306 3.2 6.4 0.15 2.92 1.73 96 1001.9
20260506172051 5 330 3.2 6.4 0.13 2.90 1.70 96 1001.9
20260506171558 5 355 1.6 6.4 0.15 2.90 1.70 96 1001.8
20260506171050 5 323 3.2 4.8 0.15 2.87 1.68 96 1001.8
20260506170550 5 245 1.6 6.4 0.15 2.87 1.68 96 1001.9
20260506170049 5 355 1.6 6.4 0.18 2.87 1.68 96 1001.9
20260506165549 5 5 1.6 8.0 0.20 2.87 1.68 96 1002.0
20260506165049 5 344 1.6 8.0 0.20 2.84 1.65 96 1002.0
20260506164549 5 344 1.6 4.8 0.23 2.84 1.65 96 1002.0
20260506164051 5 306 1.6 4.8 0.23 2.84 1.63 96 1002.1
20260506163548 5 355 1.6 8.0 0.25 2.84 1.63 96 1002.1
20260506163050 5 329 1.6 8.0 0.23 2.82 1.60 96 1002.1
20260506162551 5 323 3.2 8.0 0.25 2.79 1.57 96 1002.1
20260506162051 5 360 1.6 8.0 0.28 2.79 1.57 95 1002.3
20260506161554 5 31 3.2 4.8 0.28 2.77 1.55 96 1002.2
20260506161047 5 345 1.6 6.4 0.28 2.74 1.52 96 1002.1
20260506160548 5 43 0.0 6.4 0.30 2.74 1.52 96 1002.1
20260506160050 5 111 0.0 4.8 0.30 2.72 1.50 96 1002.3
20260506155548 5 355 0.0 4.8 0.28 2.69 1.45 96 1002.3
20260506155046 5 332 1.6 6.4 0.28 2.67 1.42 96 1002.5
20260506154546 5 316 1.6 6.4 0.25 2.64 1.42 96 1002.4
20260506154046 5 279 1.6 6.4 0.25 2.62 1.40 96 1002.3
20260506153545 5 13 0.0 6.4 0.23 2.59 1.37 95 1002.2
20260506153045 5 331 3.2 6.4 0.23 2.57 1.35 96 1002.5
20260506152544 5 306 1.6 6.4 0.20 2.54 1.32 96 1002.4
20260506152046 5 9 0.0 8.0 0.20 2.51 1.30 96 1002.2
20260506151543 5 337 3.2 8.0 0.15 2.46 1.24 96 1002.1
20260506151044 5 220 3.2 8.0 0.18 2.46 1.24 96 1002.0
20260506150643 5 36 1.6 8.0 0.15 2.44 1.22 95 1002.0
20260506150042 5 360 1.6 9.7 0.15 2.41 1.19 96 1001.9
20260506145541 5 5 1.6 9.7 0.15 2.41 1.19 95 1001.9
20260506145041 5 339 1.6 6.4 0.13 2.39 1.17 96 1002.0
20260506144541 5 11 1.6 6.4 0.13 2.39 1.17 95 1002.0
20260506144041 5 24 1.6 4.8 0.10 2.36 1.14 95 1001.9
20260506143541 5 22 1.6 4.8 0.10 2.36 1.14 95 1002.1
20260506143041 5 338 0.0 4.8 0.10 2.34 1.12 95 1002.2
20260506142540 5 27 1.6 8.0 0.10 2.34 1.12 95 1002.3
20260506142040 5 40 1.6 9.7 0.08 2.31 1.09 95 1002.3
20260506141540 5 310 3.2 9.7 0.05 2.29 1.07 95 1002.2
20260506141039 5 304 1.6 8.0 0.05 2.29 1.07 95 1002.2
20260506140538 5 306 3.2 12.9 0.03 2.26 1.04 95 1002.1
20260506140043 6 313 3.2 12.9 0.03 2.26 1.04 95 1002.2
20260506135536 6 288 1.6 4.8 0.03 2.26 1.04 95 1001.9
20260506135036 6 13 1.6 6.4 0.05 2.26 1.04 95 1001.8
20260506134607 6 333 1.6 6.4 0.05 2.26 1.04 95 1002.0
20260506134036 6 346 0.0 8.0 0.05 2.26 1.04 95 1002.1
20260506133535 6 355 1.6 8.0 0.08 2.26 1.04 95 1002.1
20260506133035 6 360 1.6 3.2 0.05 2.24 1.02 96 1002.2
20260506132535 6 355 0.0 4.8 0.08 2.24 1.02 96 1002.2
20260506132035 6 360 0.0 4.8 0.08 2.24 1.02 96 1002.4
20260506131541 6 355 0.0 4.8 0.10 2.24 1.02 96 1002.4
20260506131035 6 329 1.6 8.0 0.10 2.24 1.02 95 1002.5
20260506130535 6 350 1.6 8.0 0.13 2.24 1.02 95 1002.6
20260506130036 6 34 3.2 6.4 0.13 2.24 1.02 95 1002.6
20260506125534 6 25 1.6 4.8 0.15 2.24 1.02 95 1002.4
20260506125034 6 333 1.6 11.3 0.13 2.21 0.99 94 1002.8
20260506124533 6 343 3.2 11.3 0.15 2.21 0.99 94 1002.7
20260506124032 6 348 1.6 11.3 0.15 2.21 0.99 95 1002.5
20260506123533 6 347 3.2 11.3 0.15 2.18 0.97 95 1002.4
20260506123033 6 348 0.0 6.4 0.18 2.18 0.97 95 1002.4
20260506122532 6 43 0.0 6.4 0.18 2.16 0.94 95 1002.6
20260506122030 6 338 1.6 6.4 0.20 2.16 0.94 95 1003.0
20260506121531 6 5 1.6 6.4 0.18 2.13 0.91 95 1003.0
20260506121029 6 298 3.2 6.4 0.18 2.13 0.91 95 1003.2
20260506120530 6 48 1.6 6.4 0.15 2.11 0.89 95 1002.9
20260506120028 6 330 1.6 6.4 0.18 2.11 0.89 95 1003.1
20260506115526 7 20 0.0 4.8 0.15 2.08 0.86 95 1003.2
20260506115026 7 181 0.0 4.8 0.15 2.08 0.86 96 1003.2
20260506114533 7 275 0.0 1.6 0.13 2.06 0.84 96 1003.4
20260506114025 7 275 0.0 4.8 0.13 2.06 0.84 96 1003.4
20260506113524 7 275 0.0 4.8 0.10 2.03 0.81 95 1003.3
20260506113029 7 268 3.2 4.8 0.08 2.01 0.79 95 1003.3
20260506112524 7 279 0.0 3.2 0.05 1.98 0.76 95 1002.9
20260506112022 7 279 0.0 3.2 0.05 1.96 0.71 95 1002.8
20260506111522 7 319 0.0 4.8 0.05 1.96 0.71 96 1002.4
20260506111021 7 293 1.6 4.8 0.05 1.96 0.71 96 1002.3
20260506110523 7 321 0.0 3.2 0.05 1.96 0.71 96 1002.3
20260506110021 7 321 0.0 3.2 0.03 1.93 0.71 96 1002.2
20260506105521 7 321 0.0 3.2 0.05 1.93 0.71 95 1002.3
20260506105020 7 321 0.0 3.2 0.08 1.93 0.71 95 1002.4
20260506104520 7 333 1.6 4.8 0.08 1.93 0.71 95 1002.5
20260506104018 7 265 0.0 4.8 0.08 1.93 0.71 95 1002.4
20260506103518 7 313 1.6 4.8 0.10 1.93 0.71 95 1002.3
20260506103024 7 348 1.6 4.8 0.10 1.93 0.71 95 1002.4
20260506102516 7 25 1.6 8.0 0.10 1.93 0.71 96 1002.3
20260506102015 7 355 3.2 8.0 0.08 1.91 0.69 96 1002.4
20260506101514 8 275 1.6 6.4 0.10 1.91 0.69 96 1002.5
20260506101013 8 313 1.6 6.4 0.10 1.91 0.69 96 1002.6
20260506100513 8 281 0.0 4.8 0.10 1.91 0.69 96 1002.2
20260506100021 8 281 1.6 4.8 0.10 1.91 0.69 96 1002.3
20260506095512 8 147 0.0 4.8 0.08 1.88 0.66 96 1001.6
20260506095010 8 210 0.0 3.2 0.05 1.85 0.64 96 1003.0
20260506094515 8 129 0.0 3.2 0.05 1.85 0.64 96 1002.6
20260506094009 8 128 1.6 3.2 0.05 1.85 0.64 96 1002.5
20260506093509 8 128 0.0 3.2 0.03 1.83 0.61 96 1002.5
20260506093008 8 128 0.0 3.2 0.05 1.83 0.61 96 1002.5
20260506092512 8 128 0.0 3.2 0.05 1.83 0.61 96 1002.7
20260506092008 8 128 1.6 3.2 0.05 1.83 0.61 96 1002.7
20260506091510 8 128 0.0 1.6 0.05 1.80 0.58 96 1002.9
20260506091008 8 128 1.6 1.6 0.05 1.80 0.58 96 1003.1
20260506090507 8 128 0.0 3.2 0.05 1.80 0.58 95 1002.7
20260506090007 8 128 0.0 3.2 0.08 1.80 0.58 95 1002.9
20260506085506 8 128 0.0 1.6 0.10 1.80 0.58 95 1002.9
20260506085005 8 128 0.0 1.6 0.15 1.80 0.58 95 1002.6
20260506084505 8 128 0.0 1.6 0.15 1.80 0.58 95 1002.8
20260506084004 8 128 0.0 1.6 0.15 1.80 0.58 95 1002.8
20260506083504 8 128 0.0 1.6 0.15 1.80 0.58 95 1002.9
20260506083005 8 128 0.0 3.2 0.13 1.78 0.56 95 1002.8
20260506082503 8 128 0.0 3.2 0.15 1.78 0.56 95 1002.8
20260506082003 8 128 1.6 3.2 0.15 1.78 0.56 95 1003.0
20260506081503 8 128 0.0 1.6 0.13 1.75 0.53 95 1002.9
20260506081002 8 128 0.0 3.2 0.13 1.75 0.53 95 1003.0
20260506080502 8 126 0.0 3.2 0.15 1.75 0.53 95 1002.9
20260506073057 9 106 0.0 3.2 0.23 1.65 0.43 96 1002.8
20260506072557 9 106 0.0 3.2 0.20 1.63 0.41 96 1002.9
20260506072056 9 106 0.0 3.2 0.20 1.63 0.41 95 1002.8
20260506071557 9 113 0.0 3.2 0.20 1.63 0.41 95 1002.8
20260506071055 9 113 1.6 3.2 0.20 1.63 0.41 95 1002.5
20260506070554 9 113 0.0 3.2 0.18 1.60 0.38 95 1002.5
20260506070116 9 163 1.6 3.2 0.15 1.57 0.36 95 1002.8
20260506062050 10 38 0.0 3.2 0.08 1.42 0.20 95 1002.7
20260506061549 10 39 0.0 1.6 0.10 1.42 0.20 95 1003.0
20260506061050 10 39 0.0 1.6 0.10 1.42 0.20 95 1002.9
20260506060547 10 36 0.0 4.8 0.10 1.42 0.20 95 1003.0
20260506051043 10 325 0.0 1.6 0.10 1.32 0.10 95 1003.0
20260506050643 10 325 0.0 3.2 0.10 1.32 0.10 95 1003.0
20260506045040 10 140 1.6 3.2 0.10 1.27 0.05 95 1002.7
20260506044541 10 140 0.0 3.2 0.13 1.27 0.05 95 1002.5
20260506044040 10 140 1.6 3.2 0.13 1.27 0.05 94 1002.3
20260506043542 10 140 0.0 3.2 0.13 1.27 0.05 94 1002.5
20260506043039 10 188 0.0 1.6 0.13 1.27 0.05 94 1001.9
20260506042538 10 188 0.0 1.6 0.15 1.27 0.05 94 1002.1
20260506042037 10 188 0.0 1.6 0.15 1.24 0.03 94 1002.3
20260506041539 10 188 0.0 3.2 0.15 1.22 0.00 94 1002.3
20260506041036 10 188 0.0 3.2 0.18 1.22 0.00 94 1002.8
20260506040534 11 184 0.0 3.2 0.20 1.22 1.22 94 1002.7
20260506040032 11 165 0.0 1.6 0.20 1.19 1.19 94 1002.5
20260506035532 11 165 0.0 1.6 0.18 1.17 1.17 94 1002.4
20260506035034 11 165 0.0 4.8 0.18 1.17 1.17 93 1002.5
20260506034531 11 165 0.0 4.8 0.15 1.14 1.14 93 1002.3
20260506034030 11 111 0.0 3.2 0.15 1.14 1.14 93 1002.1
20260506033533 11 107 0.0 3.2 0.15 1.14 1.14 93 1002.2
20260506033030 11 107 0.0 3.2 0.15 1.14 1.14 92 1002.3
20260506032530 11 107 1.6 3.2 0.13 1.12 1.12 90 1002.2
20260506032027 11 107 0.0 3.2 0.10 1.09 1.09 90 1002.2
20260506031531 11 40 0.0 3.2 0.08 1.07 1.07 89 1002.1
20260506031028 12 178 0.0 4.8 0.05 1.04 1.04 88 1002.1
20260506030525 12 114 0.0 4.8 0.03 1.02 1.02 88 1001.9
20260506030024 12 355 0.0 3.2 0.03 0.99 0.99 87 1001.9
20260506025525 12 355 0.0 4.8 0.05 0.99 0.99 89 1001.7
20260506025020 12 139 1.6 6.4 0.08 0.99 0.99 90 1001.5
20260506024534 12 209 3.2 11.3 0.10 0.99 0.99 87 1001.3
20260506024020 12 312 0.0 11.3 0.10 0.99 0.99 88 1001.4
20260506023520 12 316 3.2 9.7 0.10 0.99 0.99 90 1001.3
20260506023018 13 303 1.6 6.4 0.10 0.99 0.99 93 1001.3
20260506022517 13 306 0.0 8.0 0.10 0.99 0.99 93 1001.3
20260506022018 13 306 1.6 8.0 0.10 0.99 0.99 93 1001.0
20260506021517 13 349 1.6 8.0 0.10 0.99 0.99 93 1000.9
20260506021016 13 313 3.2 17.7 0.10 0.99 0.99 92 1001.1
20260506020516 13 305 8.0 17.7 0.10 0.99 0.99 92 1001.2
20260506020015 13 309 6.4 9.7 0.08 0.97 0.97 92 1001.4
20260506015514 14 318 1.6 4.8 0.05 0.94 0.94 91 1001.2
20260506015012 14 103 0.0 3.2 0.03 0.91 0.91 90 1000.9
20260506014514 14 103 0.0 3.2 0.00 0.89 0.89 90 1000.7
20260506014009 14 197 0.0 3.2 0.00 0.89 0.89 89 1000.5
20260506013507 14 196 0.0 1.6 0.00 0.89 0.89 89 1000.3
20260506013007 14 243 0.0 3.2 0.00 0.89 0.89 88 1000.2
20260506012505 14 167 0.0 3.2 0.00 0.89 0.89 88 1000.0
20260506012005 14 155 0.0 3.2 0.00 0.89 0.89 88 999.9
20260506011503 14 194 0.0 3.2 0.00 0.89 0.89 88 999.8
20260506011004 14 163 0.0 4.8 0.00 0.89 0.89 88 999.7
20260506010506 14 165 1.6 6.4 0.00 0.89 0.89 88 999.7
20260506010004 15 151 3.2 11.3 0.00 0.89 0.89 88 999.7
20260506005504 15 185 1.6 11.3 0.00 0.89 0.89 88 999.8
20260506005003 15 165 3.2 8.0 0.00 0.89 0.89 87 999.8
20260506004503 15 135 3.2 9.7 0.00 0.89 0.89 86 999.7
20260506004001 15 151 3.2 9.7 0.00 0.89 0.89 87 999.6
20260506003600 14 207 3.2 6.4 0.00 0.89 0.89 86 999.5
20260506003100 14 190 1.6 4.8 0.00 0.89 0.89 88 999.3
20260506002559 15 142 0.0 3.2 0.00 0.89 0.89 89 999.1
20260506002057 15 142 0.0 4.8 0.00 0.89 0.89 88 999.1
20260506001602 15 142 1.6 4.8 0.00 0.89 0.89 87 999.1
20260506001057 15 304 0.0 3.2 0.00 0.89 0.89 85 999.1
20260506000557 15 12 0.0 4.8 0.00 0.89 0.89 85 999.0
20260506000119 15 177 1.6 6.4 0.00 0.89 0.89 86 999.0
20260505235557 15 137 1.6 6.4 0.00 0.89 0.89 86 999.1
20260505235055 15 167 3.2 6.4 0.00 0.89 0.89 87 999.0
20260505234555 15 144 1.6 9.7 0.00 0.89 0.89 87 998.9
20260505234055 15 171 3.2 9.7 0.00 0.89 0.89 86 998.9
20260505233555 15 158 1.6 8.0 0.00 0.89 0.89 86 999.0
20260505233059 15 165 1.6 6.4 0.00 0.89 0.89 86 999.1
20260505232554 15 155 0.0 8.0 0.00 0.89 0.89 85 999.1
20260505232055 15 169 0.0 8.0 0.00 0.89 0.89 85 999.0
20260505231606 16 146 0.0 9.7 0.00 0.89 0.89 85 998.8
20260505231054 16 128 0.0 8.0 0.00 0.89 0.89 85 998.7
20260505230553 16 174 1.6 4.8 0.00 0.89 0.89 85 998.5
20260505230105 16 175 1.6 4.8 0.00 0.89 0.89 86 998.4
20260505225556 16 130 0.0 6.4 0.00 0.89 0.89 85 998.4
20260505225052 16 173 0.0 14.5 0.00 0.89 0.89 86 998.3
20260505224552 16 171 1.6 14.5 0.00 0.89 0.89 88 998.4
20260505224051 15 196 3.2 12.9 0.00 0.89 0.89 88 998.4
20260505223556 16 167 0.0 6.4 0.00 0.89 0.89 90 998.4
20260505223051 16 141 3.2 11.3 0.00 0.89 0.89 89 998.5
20260505222551 16 146 3.2 11.3 0.00 0.89 0.89 89 998.6
20260505222050 16 151 1.6 6.4 0.00 0.89 0.89 88 998.6
20260505221558 16 142 1.6 4.8 0.00 0.89 0.89 89 998.4
20260505221050 16 251 1.6 14.5 0.00 0.89 0.89 87 998.3
20260505220550 16 153 3.2 14.5 0.00 0.89 0.89 87 998.2
20260505220049 16 176 0.0 4.8 0.00 0.89 0.89 89 998.3
20260505215549 16 176 1.6 4.8 0.00 0.89 0.89 87 998.2
20260505215048 16 269 0.0 4.8 0.00 0.89 0.89 91 998.3
20260505214548 15 270 0.0 9.7 0.00 0.89 0.89 91 998.0
20260505214051 15 269 1.6 11.3 0.00 0.89 0.89 91 998.0
20260505213548 15 237 1.6 11.3 0.00 0.89 0.89 90 998.0
20260505213049 15 133 0.0 6.4 0.03 0.89 0.89 91 998.1
20260505212548 15 123 1.6 11.3 0.03 0.89 0.89 90 998.1
20260505212047 15 148 3.2 11.3 0.05 0.89 0.89 89 998.2
20260505211547 15 115 4.8 11.3 0.10 0.89 0.89 91 998.1
20260505211047 15 130 1.6 11.3 0.13 0.89 0.89 91 997.9
20260505210548 15 126 3.2 11.3 0.15 0.89 0.89 92 997.7
20260505210047 15 146 1.6 4.8 0.15 0.89 0.89 92 997.7
20260505205548 15 162 1.6 4.8 0.15 0.89 0.89 91 997.5
20260505205046 15 118 1.6 6.4 0.15 0.89 0.89 92 997.6
20260505204551 15 160 3.2 9.7 0.15 0.89 0.89 92 997.6
20260505204046 15 140 3.2 9.7 0.15 0.89 0.89 90 997.7
20260505203546 15 169 1.6 11.3 0.15 0.89 0.89 90 997.7
20260505203055 15 213 3.2 16.1 0.13 0.86 0.86 90 997.7
20260505202545 15 262 1.6 16.1 0.18 0.86 0.86 90 997.8
20260505202045 15 24 3.2 14.5 0.23 0.84 0.84 92 998.1
20260505201547 15 317 3.2 8.0 0.18 0.79 0.79 92 997.9
20260505201044 15 178 3.2 12.9 0.15 0.76 0.76 93 997.7
20260505200545 15 319 4.8 12.9 0.13 0.71 0.71 94 997.6
20260505200046 16 319 4.8 8.0 0.13 0.71 0.71 94 997.1
20260505195546 16 115 1.6 3.2 0.53 0.71 0.71 94 996.1
20260505195047 16 115 0.0 3.2 0.58 0.71 0.71 94 996.1
20260505194554 16 115 0.0 4.8 0.58 0.71 0.71 94 996.0
20260505194043 15 102 1.6 6.4 0.66 0.71 0.71 93 996.1
20260505193541 15 156 1.6 6.4 0.71 0.71 0.71 93 996.2
20260505193042 15 207 1.6 4.8 0.71 0.71 0.71 92 996.9
20260505192541 15 180 1.6 12.9 0.64 0.64 0.64 92 996.9
20260505192040 16 332 4.8 12.9 0.61 0.61 0.61 92 996.9
20260505191553 16 325 6.4 9.7 0.61 0.61 0.61 92 996.6
20260505191040 15 337 3.2 8.0 0.61 0.61 0.61 91 996.6
20260505190541 16 355 3.2 17.7 0.61 0.61 0.61 89 996.7
20260505190041 16 77 4.8 22.5 0.58 0.58 0.58 86 997.1
20260505185540 16 182 11.3 22.5 0.18 0.18 0.18 86 996.7
20260505185037 17 10 4.8 30.6 0.15 0.15 0.15 83 995.0
20260505184537 18 46 3.2 30.6 0.15 0.15 0.15 77 995.2
20260505184034 21 336 3.2 17.7 0.08 0.08 0.08 66 995.3
20260505183533 22 154 1.6 16.1 0.00 0.00 0.00 57 994.8